Warner Robins, GA

6:25 PM EDT on March 22, 2017 (GMT -0400)
Robins Air Force Base

Weather History for KWRB - October, 2012

Change the Weather History Date:

Friday, October 26, 2012

  Actual Average Record
Temperature  
Mean Temperature 70 °F -  
Max Temperature 83 °F 72 °F 89 °F (2010)
Min Temperature 58 °F 49 °F 32 °F (2013)
Cooling Degree Days 6    
Growing Degree Days 20 (Base 50)    
Moisture  
Dew Point 59 °F    
Average Humidity 79    
Maximum Humidity 100    
Minimum Humidity 35    
Precipitation  
Precipitation 0.00 in - - ()
Sea Level Pressure  
Sea Level Pressure 29.96 in    
Wind  
Wind Speed 3 mph (NNW)    
Max Wind Speed 10 mph    
Max Gust Speed 17 mph    
Visibility 10 miles    
Events      
Averages and records for this station are not official NWS values.
T = Trace of Precipitation, MM = Missing Value Source: NWS Daily Summary

Daily Weather History Graph

Daily Weather History Graph

Search for Another Location

Airport or City:

Trip Planner

Search our weather history database for the weather conditions in past years. The results will help you decide how hot, cold, wet, or windy it might be!

Date:

Astronomy

Oct. 26, 2012 Rise Set
Actual Time 7:47 AM EDT 6:48 PM EDT
Civil Twilight 7:22 AM EDT 7:13 PM EDT
Nautical Twilight 6:53 AM EDT 7:42 PM EDT
Astronomical Twilight 6:24 AM EDT 8:11 PM EDT
Moon 4:57 PM EDT (10/26) 4:50 AM EDT (10/26)
Length of Visible Light 11h 51m
Length of Day
11h 01m
Waxing Gibbous, 91% of the Moon is Illuminated
Oct 26
Waxing Gibbous
Oct 29
Full
Nov 6
Last Quarter
Nov 13
New
Nov 20
First Quarter

Hourly Weather History & Observations

Time (EDT) Temp. Heat Index Dew Point Humidity Pressure Visibility Wind Dir Wind Speed Gust Speed Precip Events Conditions
12:55 AM 63.1 °F - 61.2 °F 93% 30.00 in 10.0 mi Calm Calm - N/A   Clear
1:55 AM 61.3 °F - 59.5 °F 94% 30.00 in 10.0 mi WNW 3.5 mph - N/A   Clear
2:55 AM 60.6 °F - 59.2 °F 95% 29.99 in 10.0 mi NW 3.5 mph - N/A   Clear
3:55 AM 59.7 °F - 58.5 °F 96% 29.98 in 10.0 mi NW 4.6 mph - N/A   Clear
4:55 AM 59.7 °F - 58.8 °F 97% 29.99 in 10.0 mi NW 4.6 mph - N/A   Clear
5:55 AM 58.5 °F - 57.6 °F 97% 29.99 in 10.0 mi NW 4.6 mph - N/A   Clear
6:55 AM 58.3 °F - 57.7 °F 98% 29.99 in 9.0 mi NW 5.8 mph - N/A   Clear
7:27 AM 59.0 °F - 57.2 °F 94% 29.99 in 4.0 mi NNW 3.5 mph - N/A   Mostly Cloudy
7:52 AM 59.0 °F - 59.0 °F 100% 30.00 in 7.0 mi Calm Calm - N/A   Overcast
7:55 AM 59.0 °F - 58.3 °F 97% 30.00 in 9.0 mi Calm Calm - N/A   Overcast
8:26 AM 60.8 °F - 60.8 °F 100% 30.01 in 10.0 mi NNW 5.8 mph - N/A   Overcast
8:55 AM 62.6 °F - 61.7 °F 97% 30.02 in 10.0 mi North 3.5 mph - N/A   Overcast
9:33 AM 64.4 °F - 64.4 °F 100% 30.03 in 10.0 mi Variable 4.6 mph - N/A   Overcast
9:47 AM 66.2 °F - 64.4 °F 94% 30.03 in 10.0 mi Variable 4.6 mph - N/A   Mostly Cloudy
9:55 AM 67.5 °F - 63.7 °F 88% 30.03 in 10.0 mi NE 3.5 mph - N/A   Mostly Cloudy
9:56 AM 68.0 °F - 64.4 °F 88% 30.03 in 10.0 mi Variable 3.5 mph - N/A   Scattered Clouds
10:55 AM 73.2 °F - 63.9 °F 72% 30.03 in 10.0 mi ENE 6.9 mph - N/A   Clear
11:55 AM 77.2 °F - 63.3 °F 62% 30.01 in 10.0 mi NE 8.1 mph - N/A   Clear
12:55 PM 79.2 °F - 60.8 °F 53% 29.99 in 10.0 mi NE 8.1 mph - N/A   Clear
1:55 PM 81.7 °F 81.3 °F 55.8 °F 41% 29.95 in 10.0 mi NNE 10.4 mph 17.3 mph N/A   Clear
2:55 PM 82.8 °F 81.6 °F 53.6 °F 36% 29.91 in 10.0 mi Variable 6.9 mph - N/A   Clear
3:55 PM 83.5 °F 82.1 °F 53.1 °F 35% 29.88 in 10.0 mi Variable 4.6 mph - N/A   Clear
4:55 PM 83.3 °F 82.0 °F 53.2 °F 35% 29.88 in 10.0 mi Variable 6.9 mph - N/A   Clear
5:55 PM 81.5 °F - 52.0 °F 36% 29.87 in 10.0 mi Variable 3.5 mph - N/A   Clear
6:55 PM 74.3 °F - 58.3 °F 57% 29.88 in 10.0 mi Calm Calm - N/A   Clear
7:55 PM 67.3 °F - 58.3 °F 73% 29.89 in 10.0 mi Calm Calm - N/A   Clear
8:55 PM 64.6 °F - 57.6 °F 78% 29.89 in 10.0 mi Calm Calm - N/A   Clear
9:55 PM 62.2 °F - 57.6 °F 85% 29.88 in 10.0 mi Calm Calm - N/A   Clear
10:55 PM 61.2 °F - 56.8 °F 86% 29.88 in 10.0 mi NW 3.5 mph - N/A   Clear
11:55 PM 59.9 °F - 56.5 °F 88% 29.88 in 10.0 mi Calm Calm - N/A   Clear